����������;��������(kVARh)
2018-08-20 00:00;6,2
2018-08-20 00:15;7,35
2018-08-20 00:30;5
2018-08-20 00:45;4,8
2018-08-20 01:00;2,85
2018-08-20 01:15;2,9
2018-08-20 01:30;2,45
2018-08-20 01:45;3,05
2018-08-20 02:00;3,15
2018-08-20 02:15;4,5
2018-08-20 02:30;5,8
2018-08-20 02:45;7,45
2018-08-20 03:00;6,7
2018-08-20 03:15;7
2018-08-20 03:30;6,6
2018-08-20 03:45;9,4
2018-08-20 04:00;8,55
2018-08-20 04:15;9,4
2018-08-20 04:30;9,15
2018-08-20 04:45;8,9
2018-08-20 05:00;9,5
2018-08-20 05:15;10,8
2018-08-20 05:30;9,65
2018-08-20 05:45;9,75
2018-08-20 06:00;9,55
2018-08-20 06:15;6,55
2018-08-20 06:30;6,75
2018-08-20 06:45;6,2
2018-08-20 07:00;5,35
2018-08-20 07:15;4,35
2018-08-20 07:30;32,7
2018-08-20 07:45;28,8
2018-08-20 08:00;8,55
2018-08-20 08:15;11,25
2018-08-20 08:30;10,15
2018-08-20 08:45;27,65
2018-08-20 09:00;40,4
2018-08-20 09:15;44
2018-08-20 09:30;43,6
2018-08-20 09:45;45,6
2018-08-20 10:00;43,35
2018-08-20 10:15;47,25
2018-08-20 10:30;54,35
2018-08-20 10:45;48,85
2018-08-20 11:00;48,85
2018-08-20 11:15;56,15
2018-08-20 11:30;53,6
2018-08-20 11:45;62,85
2018-08-20 12:00;55,75
2018-08-20 12:15;53,5
2018-08-20 12:30;59,1
2018-08-20 12:45;58,9
2018-08-20 13:00;59,6
2018-08-20 13:15;61,35
2018-08-20 13:30;58,35
2018-08-20 13:45;56,8
2018-08-20 14:00;55,4
2018-08-20 14:15;59
2018-08-20 14:30;58,65
2018-08-20 14:45;55,45
2018-08-20 15:00;60,5
2018-08-20 15:15;51,8
2018-08-20 15:30;50
2018-08-20 15:45;58,4
2018-08-20 16:00;50,7
2018-08-20 16:15;46,1
2018-08-20 16:30;53,85
2018-08-20 16:45;47,35
2018-08-20 17:00;46,45
2018-08-20 17:15;46,1
2018-08-20 17:30;42,95
2018-08-20 17:45;49
2018-08-20 18:00;41,25
2018-08-20 18:15;36,25
2018-08-20 18:30;47,8
2018-08-20 18:45;38,4
2018-08-20 19:00;37,35
2018-08-20 19:15;36,75
2018-08-20 19:30;35,8
2018-08-20 19:45;35,1
2018-08-20 20:00;32,7
2018-08-20 20:15;26,45
2018-08-20 20:30;24,8
2018-08-20 20:45;24
2018-08-20 21:00;20,6
2018-08-20 21:15;14,8
2018-08-20 21:30;16,05
2018-08-20 21:45;16,2
2018-08-20 22:00;5,5
2018-08-20 22:15;2,95
2018-08-20 22:30;1,05
2018-08-20 22:45;0,05
2018-08-20 23:00;7,2
2018-08-20 23:15;7,05
2018-08-20 23:30;5,55
2018-08-20 23:45;6,55
2018-08-21 00:00;5,1
2018-08-21 00:15;4,35
2018-08-21 00:30;5,4
2018-08-21 00:45;5
2018-08-21 01:00;5,25
2018-08-21 01:15;7,15
2018-08-21 01:30;6,5
2018-08-21 01:45;7,45
2018-08-21 02:00;1,25
2018-08-21 02:15;1,9
2018-08-21 02:30;2,85
2018-08-21 02:45;2,35
2018-08-21 03:00;2,4
2018-08-21 03:15;3,7
2018-08-21 03:30;3,35
2018-08-21 03:45;4,25
2018-08-21 04:00;5,7
2018-08-21 04:15;4,7
2018-08-21 04:30;5,9
2018-08-21 04:45;15,35
2018-08-21 05:00;16,95
2018-08-21 05:15;16,15
2018-08-21 05:30;17,45
2018-08-21 05:45;16,65
2018-08-21 06:00;16,05
2018-08-21 06:15;15,65
2018-08-21 06:30;13,6
2018-08-21 06:45;29,3
2018-08-21 07:00;32,9
2018-08-21 07:15;27,1
2018-08-21 07:30;56,55
2018-08-21 07:45;30,9
2018-08-21 08:00;31,15
2018-08-21 08:15;31,25
2018-08-21 08:30;32,95
2018-08-21 08:45;32,5
2018-08-21 09:00;39,6
2018-08-21 09:15;36,1
2018-08-21 09:30;39,15
2018-08-21 09:45;41,05
2018-08-21 10:00;43,6
2018-08-21 10:15;53,7
2018-08-21 10:30;46,85
2018-08-21 10:45;48,45
2018-08-21 11:00;54,95
2018-08-21 11:15;54,05
2018-08-21 11:30;52,95
2018-08-21 11:45;53,75
2018-08-21 12:00;54,8
2018-08-21 12:15;61,95
2018-08-21 12:30;62,1
2018-08-21 12:45;61,5
2018-08-21 13:00;59,8
2018-08-21 13:15;61,55
2018-08-21 13:30;62,55
2018-08-21 13:45;67,65
2018-08-21 14:00;61,95
2018-08-21 14:15;58,85
2018-08-21 14:30;68,6
2018-08-21 14:45;60,6
2018-08-21 15:00;59,9
2018-08-21 15:15;55,15
2018-08-21 15:30;51,15
2018-08-21 15:45;60,25
2018-08-21 16:00;49,25
2018-08-21 16:15;45,4
2018-08-21 16:30;52,5
2018-08-21 16:45;45,6
2018-08-21 17:00;43,75
2018-08-21 17:15;37,65
2018-08-21 17:30;41,9
2018-08-21 17:45;39,25
2018-08-21 18:00;24,15
2018-08-21 18:15;27,2
2018-08-21 18:30;25,3
2018-08-21 18:45;17,25
2018-08-21 19:00;21,05
2018-08-21 19:15;19,35
2018-08-21 19:30;18,15
2018-08-21 19:45;20,65
2018-08-21 20:00;18,8
2018-08-21 20:15;20,85
2018-08-21 20:30;18,65
2018-08-21 20:45;18,1
2018-08-21 21:00;18,05
2018-08-21 21:15;20,1
2018-08-21 21:30;20,3
2018-08-21 21:45;23,65
2018-08-21 22:00;23,95
2018-08-21 22:15;24,7
2018-08-21 22:30;24,05
2018-08-21 22:45;23,55
2018-08-21 23:00;26,9
2018-08-21 23:15;11,15
2018-08-21 23:30;10,15
2018-08-21 23:45;4,6
2018-08-22 00:00;1,1
2018-08-22 00:15;0,7
2018-08-22 00:30;0
2018-08-22 00:45;0
2018-08-22 01:00;0
2018-08-22 01:15;0
2018-08-22 01:30;2,5
2018-08-22 01:45;3,1
2018-08-22 02:00;3,15
2018-08-22 02:15;9,8
2018-08-22 02:30;11,25
2018-08-22 02:45;11,3
2018-08-22 03:00;11,85
2018-08-22 03:15;12,95
2018-08-22 03:30;12,9
2018-08-22 03:45;12,55
2018-08-22 04:00;11,7
2018-08-22 04:15;11,15
2018-08-22 04:30;11,55
2018-08-22 04:45;11,9
2018-08-22 05:00;14,35
2018-08-22 05:15;14,95
2018-08-22 05:30;13
2018-08-22 05:45;15
2018-08-22 06:00;15,55
2018-08-22 06:15;13,25
2018-08-22 06:30;13,05
2018-08-22 06:45;13,3
2018-08-22 07:00;11,55
2018-08-22 07:15;21,75
2018-08-22 07:30;56,8
2018-08-22 07:45;27,4
2018-08-22 08:00;22,3
2018-08-22 08:15;34
2018-08-22 08:30;29,4
2018-08-22 08:45;33,6
2018-08-22 09:00;44
2018-08-22 09:15;40,2
2018-08-22 09:30;43,95
2018-08-22 09:45;45,65
2018-08-22 10:00;46,75
2018-08-22 10:15;54,55
2018-08-22 10:30;45,75
2018-08-22 10:45;42,4
2018-08-22 11:00;44,7
2018-08-22 11:15;45,7
2018-08-22 11:30;48,45
2018-08-22 11:45;54,75
2018-08-22 12:00;57
2018-08-22 12:15;52,5
2018-08-22 12:30;54,85
2018-08-22 12:45;57,3
2018-08-22 13:00;65,85
2018-08-22 13:15;60,05
2018-08-22 13:30;56,3
2018-08-22 13:45;63,25
2018-08-22 14:00;52,7
2018-08-22 14:15;62,55
2018-08-22 14:30;55,7
2018-08-22 14:45;52,5
2018-08-22 15:00;63,65
2018-08-22 15:15;44,1
2018-08-22 15:30;48,35
2018-08-22 15:45;42,3
2018-08-22 16:00;37,8
2018-08-22 16:15;39,2
2018-08-22 16:30;36
2018-08-22 16:45;36,4
2018-08-22 17:00;34,9
2018-08-22 17:15;33,2
2018-08-22 17:30;31,65
2018-08-22 17:45;34,55
2018-08-22 18:00;31
2018-08-22 18:15;34,75
2018-08-22 18:30;27,55
2018-08-22 18:45;20
2018-08-22 19:00;29,75
2018-08-22 19:15;13,2
2018-08-22 19:30;11,85
2018-08-22 19:45;12,25
2018-08-22 20:00;11,4
2018-08-22 20:15;11,95
2018-08-22 20:30;9,25
2018-08-22 20:45;10,45
2018-08-22 21:00;3,8
2018-08-22 21:15;4,05
2018-08-22 21:30;5,95
2018-08-22 21:45;5,6
2018-08-22 22:00;4,45
2018-08-22 22:15;1,05
2018-08-22 22:30;1,15
2018-08-22 22:45;0,25
2018-08-22 23:00;0,65
2018-08-22 23:15;0,6
2018-08-22 23:30;0,95
2018-08-22 23:45;1,4
2018-08-23 00:00;0,45
2018-08-23 00:15;1,45
2018-08-23 00:30;1,4
2018-08-23 00:45;2,8
2018-08-23 01:00;4,4
2018-08-23 01:15;10,35
2018-08-23 01:30;11,5
2018-08-23 01:45;11,15
2018-08-23 02:00;7,7
2018-08-23 02:15;15,6
2018-08-23 02:30;19,05
2018-08-23 02:45;20,5
2018-08-23 03:00;20,1
2018-08-23 03:15;20,65
2018-08-23 03:30;22
2018-08-23 03:45;23,95
2018-08-23 04:00;22,3
2018-08-23 04:15;23,25
2018-08-23 04:30;24,1
2018-08-23 04:45;24,15
2018-08-23 05:00;25,15
2018-08-23 05:15;24,1
2018-08-23 05:30;23,8
2018-08-23 05:45;25,6
2018-08-23 06:00;24,5
2018-08-23 06:15;22,2
2018-08-23 06:30;21,25
2018-08-23 06:45;21,05
2018-08-23 07:00;21,5
2018-08-23 07:15;21,1
2018-08-23 07:30;47,3
2018-08-23 07:45;37,6
2018-08-23 08:00;42,1
2018-08-23 08:15;49,05
2018-08-23 08:30;35,15
2018-08-23 08:45;32,65
2018-08-23 09:00;33,2
2018-08-23 09:15;38,1
2018-08-23 09:30;36,95
2018-08-23 09:45;38,6
2018-08-23 10:00;41,3
2018-08-23 10:15;42
2018-08-23 10:30;42,4
2018-08-23 10:45;54,9
2018-08-23 11:00;57,5
2018-08-23 11:15;65,75
2018-08-23 11:30;63,2
2018-08-23 11:45;60,15
2018-08-23 12:00;55,3
2018-08-23 12:15;52,7
2018-08-23 12:30;54,2
2018-08-23 12:45;53,5
2018-08-23 13:00;53,4
2018-08-23 13:15;52,35
2018-08-23 13:30;54
2018-08-23 13:45;52,2
2018-08-23 14:00;57,05
2018-08-23 14:15;53,9
2018-08-23 14:30;54,4
2018-08-23 14:45;53,7
2018-08-23 15:00;52,2
2018-08-23 15:15;49,1
2018-08-23 15:30;70,4
2018-08-23 15:45;67
2018-08-23 16:00;62,6
2018-08-23 16:15;53,35
2018-08-23 16:30;46,85
2018-08-23 16:45;56,7
2018-08-23 17:00;41,15
2018-08-23 17:15;39,6
2018-08-23 17:30;34,15
2018-08-23 17:45;36,75
2018-08-23 18:00;34,55
2018-08-23 18:15;27,65
2018-08-23 18:30;25,55
2018-08-23 18:45;28,2
2018-08-23 19:00;29,45
2018-08-23 19:15;12,95
2018-08-23 19:30;14,5
2018-08-23 19:45;14,1
2018-08-23 20:00;14,7
2018-08-23 20:15;14,7
2018-08-23 20:30;13,2
2018-08-23 20:45;12,2
2018-08-23 21:00;12,95
2018-08-23 21:15;15,1
2018-08-23 21:30;8,85
2018-08-23 21:45;11,75
2018-08-23 22:00;11,8
2018-08-23 22:15;7,35
2018-08-23 22:30;2,15
2018-08-23 22:45;1,45
2018-08-23 23:00;2,65
2018-08-23 23:15;3,45
2018-08-23 23:30;2,1
2018-08-23 23:45;2,7
2018-08-24 00:00;1,05
2018-08-24 00:15;4,7
2018-08-24 00:30;10
2018-08-24 00:45;10,35
2018-08-24 01:00;10,25
2018-08-24 01:15;12,6
2018-08-24 01:30;12,85
2018-08-24 01:45;13,6
2018-08-24 02:00;11,3
2018-08-24 02:15;8,4
2018-08-24 02:30;12,85
2018-08-24 02:45;20,75
2018-08-24 03:00;20,85
2018-08-24 03:15;20,95
2018-08-24 03:30;22,3
2018-08-24 03:45;22
2018-08-24 04:00;22,45
2018-08-24 04:15;22,6
2018-08-24 04:30;23
2018-08-24 04:45;31,15
2018-08-24 05:00;42,8
2018-08-24 05:15;40
2018-08-24 05:30;36,4
2018-08-24 05:45;34
2018-08-24 06:00;31,2
2018-08-24 06:15;29,45
2018-08-24 06:30;28,9
2018-08-24 06:45;27,85
2018-08-24 07:00;28,7
2018-08-24 07:15;27,1
2018-08-24 07:30;55,2
2018-08-24 07:45;27,6
2018-08-24 08:00;24,9
2018-08-24 08:15;42,15
2018-08-24 08:30;36,25
2018-08-24 08:45;36,6
2018-08-24 09:00;43,1
2018-08-24 09:15;42,6
2018-08-24 09:30;51,4
2018-08-24 09:45;48,9
2018-08-24 10:00;49,9
2018-08-24 10:15;52,35
2018-08-24 10:30;54,95
2018-08-24 10:45;56,4
2018-08-24 11:00;54,25
2018-08-24 11:15;54,65
2018-08-24 11:30;54,4
2018-08-24 11:45;56,8
2018-08-24 12:00;55,75
2018-08-24 12:15;65,75
2018-08-24 12:30;59
2018-08-24 12:45;58,85
2018-08-24 13:00;65,1
2018-08-24 13:15;68,4
2018-08-24 13:30;72,75
2018-08-24 13:45;70
2018-08-24 14:00;63,9
2018-08-24 14:15;66,55
2018-08-24 14:30;67,95
2018-08-24 14:45;69,8
2018-08-24 15:00;67,6
2018-08-24 15:15;63,45
2018-08-24 15:30;55,6
2018-08-24 15:45;51,75
2018-08-24 16:00;49,55
2018-08-24 16:15;44,75
2018-08-24 16:30;56,15
2018-08-24 16:45;46,75
2018-08-24 17:00;45,15
2018-08-24 17:15;51,25
2018-08-24 17:30;44,3
2018-08-24 17:45;43,1
2018-08-24 18:00;41,25
2018-08-24 18:15;37,05
2018-08-24 18:30;32,45
2018-08-24 18:45;33,55
2018-08-24 19:00;28,5
2018-08-24 19:15;21,75
2018-08-24 19:30;13,35
2018-08-24 19:45;18,15
2018-08-24 20:00;21
2018-08-24 20:15;20,75
2018-08-24 20:30;18,5
2018-08-24 20:45;18,35
2018-08-24 21:00;18,65
2018-08-24 21:15;20,8
2018-08-24 21:30;21,95
2018-08-24 21:45;23,25
2018-08-24 22:00;24,7
2018-08-24 22:15;26,7
2018-08-24 22:30;21,45
2018-08-24 22:45;18,75
2018-08-24 23:00;22,7
2018-08-24 23:15;20,75
2018-08-24 23:30;20,2
2018-08-24 23:45;20,05
2018-08-25 00:00;16,85
2018-08-25 00:15;18,75
2018-08-25 00:30;17
2018-08-25 00:45;18,55
2018-08-25 01:00;19,95
2018-08-25 01:15;19,45
2018-08-25 01:30;19,6
2018-08-25 01:45;22,15
2018-08-25 02:00;22,2
2018-08-25 02:15;18,8
2018-08-25 02:30;12,85
2018-08-25 02:45;13,05
2018-08-25 03:00;13,9
2018-08-25 03:15;13,4
2018-08-25 03:30;13,8
2018-08-25 03:45;16,15
2018-08-25 04:00;14,9
2018-08-25 04:15;15,45
2018-08-25 04:30;17,6
2018-08-25 04:45;15,4
2018-08-25 05:00;16,35
2018-08-25 05:15;16,85
2018-08-25 05:30;15,7
2018-08-25 05:45;17,35
2018-08-25 06:00;16
2018-08-25 06:15;15,2
2018-08-25 06:30;15,55
2018-08-25 06:45;15
2018-08-25 07:00;15,3
2018-08-25 07:15;13,6
2018-08-25 07:30;12,4
2018-08-25 07:45;12,9
2018-08-25 08:00;11
2018-08-25 08:15;9,4
2018-08-25 08:30;10,3
2018-08-25 08:45;9,7
2018-08-25 09:00;14
2018-08-25 09:15;16,8
2018-08-25 09:30;18,4
2018-08-25 09:45;16,8
2018-08-25 10:00;18,3
2018-08-25 10:15;18,3
2018-08-25 10:30;17,9
2018-08-25 10:45;17,45
2018-08-25 11:00;16,8
2018-08-25 11:15;16,05
2018-08-25 11:30;16,75
2018-08-25 11:45;14,95
2018-08-25 12:00;16,75
2018-08-25 12:15;15,2
2018-08-25 12:30;16
2018-08-25 12:45;15,05
2018-08-25 13:00;16,55
2018-08-25 13:15;15,7
2018-08-25 13:30;15,45
2018-08-25 13:45;16,6
2018-08-25 14:00;17,95
2018-08-25 14:15;17,15
2018-08-25 14:30;18,5
2018-08-25 14:45;17,5
2018-08-25 15:00;18,2
2018-08-25 15:15;18,55
2018-08-25 15:30;19,45
2018-08-25 15:45;19,65
2018-08-25 16:00;20,15
2018-08-25 16:15;20,1
2018-08-25 16:30;22
2018-08-25 16:45;20,1
2018-08-25 17:00;19,8
2018-08-25 17:15;18,8
2018-08-25 17:30;18,95
2018-08-25 17:45;18,65
2018-08-25 18:00;19,25
2018-08-25 18:15;18,35
2018-08-25 18:30;18,8
2018-08-25 18:45;17,65
2018-08-25 19:00;17,4
2018-08-25 19:15;18,05
2018-08-25 19:30;17,9
2018-08-25 19:45;18,05
2018-08-25 20:00;19,35
2018-08-25 20:15;18,3
2018-08-25 20:30;17,2
2018-08-25 20:45;15,6
2018-08-25 21:00;17,7
2018-08-25 21:15;16,4
2018-08-25 21:30;18,7
2018-08-25 21:45;17,95
2018-08-25 22:00;18,4
2018-08-25 22:15;18,05
2018-08-25 22:30;17,85
2018-08-25 22:45;19,95
2018-08-25 23:00;21,65
2018-08-25 23:15;21,35
2018-08-25 23:30;21,8
2018-08-25 23:45;22,15
2018-08-26 00:00;15,3
2018-08-26 00:15;15,25
2018-08-26 00:30;15,8
2018-08-26 00:45;16,1
2018-08-26 01:00;17,4
2018-08-26 01:15;15,85
2018-08-26 01:30;18,75
2018-08-26 01:45;18,8
2018-08-26 02:00;19,9
2018-08-26 02:15;20,05
2018-08-26 02:30;10,2
2018-08-26 02:45;10,55
2018-08-26 03:00;10,4
2018-08-26 03:15;10,8
2018-08-26 03:30;11,3
2018-08-26 03:45;10,7
2018-08-26 04:00;12,05
2018-08-26 04:15;12,35
2018-08-26 04:30;12,2
2018-08-26 04:45;12,5
2018-08-26 05:00;12,1
2018-08-26 05:15;12,1
2018-08-26 05:30;12,6
2018-08-26 05:45;12,7
2018-08-26 06:00;12,55
2018-08-26 06:15;11,7
2018-08-26 06:30;11,65
2018-08-26 06:45;11,45
2018-08-26 07:00;11,35
2018-08-26 07:15;10,75
2018-08-26 07:30;9,3
2018-08-26 07:45;9,75
2018-08-26 08:00;9,25
2018-08-26 08:15;8,75
2018-08-26 08:30;7,6
2018-08-26 08:45;10,25
2018-08-26 09:00;18,2
2018-08-26 09:15;19,8
2018-08-26 09:30;18,45
2018-08-26 09:45;19,35
2018-08-26 10:00;20,35
2018-08-26 10:15;20,8
2018-08-26 10:30;20,2
2018-08-26 10:45;18,1
2018-08-26 11:00;15,1
2018-08-26 11:15;16,35
2018-08-26 11:30;19,05
2018-08-26 11:45;20,65
2018-08-26 12:00;19,75
2018-08-26 12:15;19,7
2018-08-26 12:30;17,95
2018-08-26 12:45;19,4
2018-08-26 13:00;18,65
2018-08-26 13:15;18,9
2018-08-26 13:30;19
2018-08-26 13:45;19,2
2018-08-26 14:00;19,7
2018-08-26 14:15;19,25
2018-08-26 14:30;20,65
2018-08-26 14:45;20,75
2018-08-26 15:00;21,45
2018-08-26 15:15;20,7
2018-08-26 15:30;20,3
2018-08-26 15:45;21,55
2018-08-26 16:00;21,25
2018-08-26 16:15;22,05
2018-08-26 16:30;21,95
2018-08-26 16:45;23,15
2018-08-26 17:00;20,8
2018-08-26 17:15;21,4
2018-08-26 17:30;19,8
2018-08-26 17:45;20,5
2018-08-26 18:00;18,65
2018-08-26 18:15;19,55
2018-08-26 18:30;18,25
2018-08-26 18:45;19,1
2018-08-26 19:00;19,5
2018-08-26 19:15;20,1
2018-08-26 19:30;21
2018-08-26 19:45;21,7
2018-08-26 20:00;22,9
2018-08-26 20:15;23,7
2018-08-26 20:30;22,4
2018-08-26 20:45;21,4
2018-08-26 21:00;20,5
2018-08-26 21:15;21
2018-08-26 21:30;21,45
2018-08-26 21:45;22,15
2018-08-26 22:00;20,95
2018-08-26 22:15;20,5
2018-08-26 22:30;18,45
2018-08-26 22:45;18,05
2018-08-26 23:00;18,65
2018-08-26 23:15;15,8
2018-08-26 23:30;17,05
2018-08-26 23:45;15,75

